Location: Maignaut
(43.8886°N, 0.4051°E)
Time: 09:21:25
(UTC+00:00)

Timation 2 Rocket - Pass Details

Date: 27 February 2020
Orbit: 904 x 1078 km, 70.0° (Epoch: 09 April)

Event Time Altitude Azimuth Distance (km) Brightness Sun altitude
Rises 18:36:47 0° 335° (NNW) 3,867 7.5 -10.4°
Reaches altitude 10° 18:39:28 10° 339° (NNW) 2,918 6.8 -10.9°
Maximum altitude 18:46:17 59° 59° (ENE) 1,234 4.3 -12.1°
Drops below altitude 10° 18:53:01 10° 138° (SE) 2,889 6.1 -13.3°
Enters shadow 18:55:12 - 141° (SE) 3,662 6.6 -13.7°
